Silver City, NM

5:50 PM MST on February 24, 2018 (GMT -0700)
Grant County

Weather History for KSVC - August, 2014

Change the Weather History Date:

Thursday, August 21, 2014

  Actual Average (KDMN) Record (KDMN)
Temperature  
Mean Temperature 72 °F -  
Max Temperature 84 °F 92 °F 104 °F (1948)
Min Temperature 60 °F 61 °F 53 °F (1950)
Cooling Degree Days 7    
Growing Degree Days 22 (Base 50)    
Moisture  
Dew Point 49 °F    
Average Humidity 45    
Maximum Humidity 68    
Minimum Humidity 25    
Precipitation  
Precipitation 0.00 in - - ()
Sea Level Pressure  
Sea Level Pressure 30.16 in    
Wind  
Wind Speed 10 mph (WNW)    
Max Wind Speed 15 mph    
Max Gust Speed 20 mph    
Visibility 10 miles    
Events      
Averages and records for this station are not official NWS values.
T = Trace of Precipitation, MM = Missing Value Source: NWS Daily Summary

Daily Weather History Graph

Daily Weather History Graph

Search for Another Location

Airport or City:

Trip Planner

Search our weather history database for the weather conditions in past years. The results will help you decide how hot, cold, wet, or windy it might be!

Date:

Astronomy

Aug. 21, 2014 Rise Set
Actual Time 6:40 AM MDT 7:50 PM MDT
Civil Twilight 6:14 AM MDT 8:16 PM MDT
Nautical Twilight 5:44 AM MDT 8:46 PM MDT
Astronomical Twilight 5:12 AM MDT 9:18 PM MDT
Moon 3:18 AM MDT (8/21) 5:16 PM MDT (8/21)
Length of Visible Light 14h 01m
Length of Day
13h 10m
Waning Crescent, 13% of the Moon is Illuminated
Aug 21
Waning Crescent
Aug 25
New
Sep 2
First Quarter
Sep 8
Full
Sep 15
Last Quarter

Hourly Weather History & Observations

Time (MDT) Temp. Dew Point Humidity Pressure Visibility Wind Dir Wind Speed Gust Speed Precip Events Conditions
12:15 AM 64.4 °F 50.0 °F 59% 30.16 in 10.0 mi NNW 10.4 mph - N/A   Clear
12:35 AM 64.4 °F 50.0 °F 59% 30.16 in 10.0 mi NNW 9.2 mph - N/A   Clear
12:55 AM 64.4 °F 50.0 °F 59% 30.16 in 10.0 mi NNW 9.2 mph - N/A   Clear
1:15 AM 64.4 °F 50.0 °F 59% 30.16 in 10.0 mi NNW 11.5 mph - N/A   Clear
1:35 AM 64.4 °F 51.8 °F 64% 30.15 in 10.0 mi NNW 10.4 mph - N/A   Clear
1:55 AM 64.4 °F 50.0 °F 59% 30.15 in 10.0 mi NNW 11.5 mph - N/A   Clear
2:15 AM 64.4 °F 50.0 °F 59% 30.15 in 10.0 mi NNW 11.5 mph - N/A   Clear
2:35 AM 64.4 °F 50.0 °F 59% 30.14 in 10.0 mi NNW 12.7 mph - N/A   Clear
2:55 AM 64.4 °F 50.0 °F 59% 30.14 in 10.0 mi NNW 10.4 mph - N/A   Clear
3:15 AM 62.6 °F 50.0 °F 63% 30.14 in 10.0 mi NNW 10.4 mph - N/A   Clear
3:35 AM 60.8 °F 50.0 °F 68% 30.14 in 10.0 mi NNW 10.4 mph - N/A   Clear
3:55 AM 62.6 °F 50.0 °F 63% 30.14 in 10.0 mi NNW 12.7 mph - N/A   Clear
4:15 AM 62.6 °F 50.0 °F 63% 30.14 in 10.0 mi NNW 13.8 mph - N/A   Clear
4:35 AM 62.6 °F 50.0 °F 63% 30.14 in 10.0 mi NNW 12.7 mph - N/A   Clear
4:55 AM 62.6 °F 50.0 °F 63% 30.15 in 10.0 mi NNW 11.5 mph - N/A   Clear
5:15 AM 62.6 °F 50.0 °F 63% 30.15 in 10.0 mi NNW 12.7 mph - N/A   Clear
5:35 AM 62.6 °F 50.0 °F 63% 30.14 in 10.0 mi NNW 11.5 mph - N/A   Clear
5:55 AM 62.6 °F 50.0 °F 63% 30.15 in 10.0 mi NW 11.5 mph - N/A   Clear
6:15 AM 60.8 °F 50.0 °F 68% 30.15 in 10.0 mi NW 11.5 mph - N/A   Clear
6:35 AM 62.6 °F 50.0 °F 63% 30.16 in 10.0 mi NW 13.8 mph - N/A   Clear
6:55 AM 60.8 °F 50.0 °F 68% 30.16 in 10.0 mi NNW 11.5 mph - N/A   Clear
7:15 AM 62.6 °F 50.0 °F 63% 30.17 in 10.0 mi NNW 9.2 mph - N/A   Clear
7:35 AM 64.4 °F 50.0 °F 59% 30.18 in 10.0 mi NNW 10.4 mph - N/A   Clear
7:55 AM 66.2 °F 50.0 °F 56% 30.18 in 10.0 mi NNW 9.2 mph - N/A   Clear
8:15 AM 68.0 °F 50.0 °F 52% 30.18 in 10.0 mi NNW 10.4 mph - N/A   Clear
8:35 AM 69.8 °F 50.0 °F 49% 30.19 in 10.0 mi NNW 10.4 mph - N/A   Clear
8:55 AM 71.6 °F 51.8 °F 50% 30.19 in 10.0 mi NW 8.1 mph - N/A   Clear
9:15 AM 71.6 °F 50.0 °F 46% 30.19 in 10.0 mi NW 9.2 mph - N/A   Clear
9:35 AM 73.4 °F 50.0 °F 44% 30.20 in 10.0 mi NNW 4.6 mph - N/A   Clear
9:55 AM 73.4 °F 50.0 °F 44% 30.19 in 10.0 mi NE 3.5 mph - N/A   Clear
10:15 AM 75.2 °F 50.0 °F 41% 30.20 in 10.0 mi SSE 5.8 mph - N/A   Clear
10:35 AM 77.0 °F 46.4 °F 34% 30.20 in 10.0 mi SE 6.9 mph - N/A   Clear
10:55 AM 77.0 °F 46.4 °F 34% 30.20 in 10.0 mi SSE 4.6 mph - N/A   Clear
11:15 AM 77.0 °F 46.4 °F 34% 30.20 in 10.0 mi South 5.8 mph - N/A   Partly Cloudy
11:35 AM 78.8 °F 48.2 °F 34% 30.20 in 10.0 mi Calm Calm - N/A   Clear
11:55 AM 78.8 °F 48.2 °F 34% 30.20 in 10.0 mi SSE 4.6 mph - N/A   Clear
12:15 PM 78.8 °F 46.4 °F 32% 30.19 in 10.0 mi NNW 3.5 mph - N/A   Clear
12:35 PM 80.6 °F 46.4 °F 30% 30.19 in 10.0 mi SW 6.9 mph - N/A   Clear
12:55 PM 78.8 °F 48.2 °F 34% 30.19 in 10.0 mi SSW 3.5 mph - N/A   Clear
1:15 PM 80.6 °F 46.4 °F 30% 30.18 in 10.0 mi WSW 3.5 mph - N/A   Clear
1:35 PM 80.6 °F 46.4 °F 30% 30.18 in 10.0 mi SSE 8.1 mph - N/A   Clear
1:55 PM 80.6 °F 46.4 °F 30% 30.18 in 10.0 mi South 9.2 mph - N/A   Partly Cloudy
2:15 PM 78.8 °F 48.2 °F 34% 30.17 in 10.0 mi WNW 3.5 mph - N/A   Clear
2:55 PM 80.6 °F 48.2 °F 32% 30.16 in 10.0 mi SSW 10.4 mph - N/A   Clear
3:15 PM 80.6 °F 46.4 °F 30% 30.16 in 10.0 mi SSW 3.5 mph - N/A   Clear
3:35 PM 80.6 °F 46.4 °F 30% 30.15 in 10.0 mi SW 6.9 mph - N/A   Clear
3:55 PM 82.4 °F 46.4 °F 28% 30.14 in 10.0 mi Calm Calm - N/A   Clear
4:15 PM 82.4 °F 44.6 °F 26% 30.13 in 10.0 mi South 3.5 mph - N/A   Clear
4:35 PM 84.2 °F 44.6 °F 25% 30.12 in 10.0 mi West 9.2 mph - N/A   Clear
4:55 PM 84.2 °F 46.4 °F 27% 30.12 in 10.0 mi WNW 8.1 mph - N/A   Scattered Clouds
5:15 PM 84.2 °F 46.4 °F 27% 30.11 in 10.0 mi West 11.5 mph - N/A   Scattered Clouds
5:35 PM 82.4 °F 46.4 °F 28% 30.11 in 10.0 mi WSW 10.4 mph 16.1 mph N/A   Scattered Clouds
5:55 PM 82.4 °F 46.4 °F 28% 30.12 in 10.0 mi WSW 10.4 mph - N/A   Mostly Cloudy
6:15 PM 80.6 °F 46.4 °F 30% 30.12 in 10.0 mi WSW 12.7 mph 17.3 mph N/A   Partly Cloudy
6:35 PM 80.6 °F 46.4 °F 30% 30.12 in 10.0 mi West 9.2 mph - N/A   Clear
6:55 PM 80.6 °F 46.4 °F 30% 30.13 in 10.0 mi West 12.7 mph 17.3 mph N/A   Partly Cloudy
7:15 PM 78.8 °F 42.8 °F 28% 30.14 in 10.0 mi West 13.8 mph - N/A   Partly Cloudy
7:35 PM 77.0 °F 44.6 °F 32% 30.14 in 10.0 mi West 10.4 mph - N/A   Clear
7:55 PM 77.0 °F 48.2 °F 36% 30.15 in 10.0 mi West 11.5 mph - N/A   Clear
8:15 PM 75.2 °F 50.0 °F 41% 30.15 in 10.0 mi West 10.4 mph - N/A   Clear
8:35 PM 75.2 °F 50.0 °F 41% 30.16 in 10.0 mi WNW 12.7 mph - N/A   Clear
8:55 PM 75.2 °F 50.0 °F 41% 30.16 in 10.0 mi WNW 15.0 mph - N/A   Clear
9:15 PM 75.2 °F 50.0 °F 41% 30.18 in 10.0 mi WNW 12.7 mph - N/A   Clear
9:35 PM 73.4 °F 50.0 °F 44% 30.18 in 10.0 mi NW 12.7 mph - N/A   Clear
9:55 PM 73.4 °F 51.8 °F 47% 30.19 in 10.0 mi NW 12.7 mph - N/A   Clear
10:15 PM 73.4 °F 51.8 °F 47% 30.19 in 10.0 mi NW 12.7 mph - N/A   Clear
10:35 PM 71.6 °F 51.8 °F 50% 30.19 in 10.0 mi NW 9.2 mph - N/A   Scattered Clouds
10:55 PM 71.6 °F 51.8 °F 50% 30.19 in 10.0 mi NW 10.4 mph - N/A   Mostly Cloudy
11:15 PM 71.6 °F 51.8 °F 50% 30.19 in 10.0 mi NNW 11.5 mph - N/A   Scattered Clouds
11:35 PM 71.6 °F 51.8 °F 50% 30.19 in 10.0 mi NNW 13.8 mph 19.6 mph N/A   Partly Cloudy
11:55 PM 71.6 °F 51.8 °F 50% 30.19 in 10.0 mi NW 12.7 mph - N/A   Clear